Morelia, Mexico

8:27 AM CDT on October 01, 2016 (GMT -0500)
Gen Francisco J Mujica International

Weather History for MMMM - December, 2013

Change the Weather History Date:

Tuesday, December 3, 2013

  Actual Average Record
Temperature  
Mean Temperature 64 °F -  
Max Temperature 82 °F 73 °F 82 °F (2013)
Min Temperature 45 °F 41 °F 35 °F (1999)
Degree Days  
Heating Degree Days 2    
Growing Degree Days 14 (Base 50)    
Moisture  
Dew Point 49 °F    
Average Humidity 73    
Maximum Humidity 100    
Minimum Humidity 37    
Precipitation  
Precipitation 0.00 in - - ()
Sea Level Pressure  
Sea Level Pressure 29.99 in    
Wind  
Wind Speed 2 mph ()    
Max Wind Speed 16 mph    
Max Gust Speed -    
Visibility 6.3 miles    
Events      
Averages and records for this station are not official NWS values.
T = Trace of Precipitation, MM = Missing Value Source: Averaged Metar Reports

Daily Weather History Graph

Daily Weather History Graph

Search for Another Location

Airport or City:

Trip Planner

Search our weather history database for the weather conditions in past years. The results will help you decide how hot, cold, wet, or windy it might be!

Date:

Astronomy

Dec. 03, 2013 Rise Set
Actual Time 7:03 AM CST 6:04 PM CST
Civil Twilight 6:40 AM CST 6:27 PM CST
Nautical Twilight 6:12 AM CST 6:55 PM CST
Astronomical Twilight 5:46 AM CST 7:22 PM CST
Moon 7:38 AM CST (12/3) 7:06 PM CST (12/3)
Length of Visible Light 11h 47m
Length of Day
11h 00m
New Moon, 1% of the Moon is Illuminated
Dec 3
New Moon
Dec 9
First Quarter
Dec 17
Full
Dec 25
Last Quarter
Jan 1
New

Hourly Weather History & Observations

Time (CST) Temp. Dew Point Humidity Pressure Visibility Wind Dir Wind Speed Gust Speed Precip Events Conditions
12:41 AM 44.6 °F 41.0 °F 87% 30.18 in 6.0 mi Calm Calm - N/A   Clear
1:41 AM 42.8 °F 39.2 °F 87% 30.17 in 6.0 mi Calm Calm - N/A   Clear
2:43 AM 41.0 °F 39.2 °F 93% 29.86 in 6.0 mi Calm Calm - N/A   Clear
2:45 AM 49 °F 46 °F 86% 29.85 in 5 mi SSW 2.2 mph - -  
3:41 AM 39.2 °F 39.2 °F 100% 30.15 in 6.0 mi Calm Calm - N/A   Clear
4:43 AM 37.4 °F 37.4 °F 100% 30.14 in 6.0 mi Calm Calm - N/A   Clear
5:45 AM 47 °F 46 °F 92% 29.93 in 5 mi SSW 2.2 mph - -   Partly Cloudy
5:50 AM 37.4 °F 37.4 °F 100% 29.89 in 6.0 mi Calm Calm - N/A   Clear
6:43 AM 37.4 °F 37.4 °F 100% 30.16 in 5.0 mi Calm Calm - N/A   Clear
7:48 AM 41.0 °F 41.0 °F 100% 30.17 in 6.0 mi Calm Calm - N/A   Clear
8:43 AM 50.0 °F 46.4 °F 87% 29.97 in 6.0 mi Calm Calm - N/A   Clear
8:50 AM 52 °F 48 °F 81% 29.98 in 7 mi SSW 2.2 mph - -   Partly Cloudy
9:42 AM 62.6 °F 50.0 °F 63% 30.20 in 7.0 mi Calm Calm - N/A   Clear
10:51 AM 66.2 °F 46.4 °F 49% 30.19 in 7.0 mi Calm Calm - N/A   Clear
11:45 AM 71.6 °F 48.2 °F 43% 29.83 in 7.0 mi Variable 2.3 mph - N/A   Clear
11:50 AM 74 °F 54 °F 40% 29.92 in 7 mi East 2.2 mph - -  
12:42 PM 77.0 °F 50.0 °F 39% 30.13 in 7.0 mi SSW 6.9 mph - N/A   Clear
1:48 PM 78.8 °F 51.8 °F 39% 30.08 in 7.0 mi East 9.2 mph - N/A   Clear
2:54 PM 80.6 °F 51.8 °F 37% 29.68 in 7.0 mi South 4.6 mph - N/A   Clear
2:55 PM 79 °F 58 °F 38% 29.78 in 7 mi SSE 2.2 mph - -  
3:53 PM 77.0 °F 53.6 °F 44% 30.04 in 7.0 mi South 16.1 mph - N/A   Clear
4:45 PM 73.4 °F 53.6 °F 50% 30.05 in 7.0 mi South 16.1 mph - N/A   Clear
5:45 PM 68.0 °F 51.8 °F 56% 29.81 in 7.0 mi South 11.5 mph - N/A   Clear
5:55 PM 67 °F 62 °F 81% 29.71 in 6 mi SSE 2.2 mph - -  
6:51 PM 64.4 °F 53.6 °F 68% 30.10 in 7.0 mi SSW 8.1 mph - N/A   Clear
7:45 PM 62.6 °F 55.4 °F 77% 30.13 in 7.0 mi Calm Calm - N/A   Clear
8:45 PM 60.8 °F 53.6 °F 77% 29.85 in 7.0 mi SW 5.8 mph - N/A   Clear
8:50 PM 62 °F 56 °F 75% 29.73 in 5 mi SSW 2.2 mph - -  
9:43 PM 57.2 °F 51.8 °F 82% 30.17 in 6.0 mi SW 5.8 mph - N/A   Clear
10:43 PM 59.0 °F 55.4 °F 88% 30.19 in 6.0 mi SW 6.9 mph - N/A   Clear
11:44 PM 57.2 °F 55.4 °F 94% 29.78 in 6.0 mi SSW 8.1 mph - N/A   Clear
11:50 PM 57 °F 54 °F 88% 29.79 in 5 mi SSW 2.2 mph - -